Location: Barcelona
(41.3829°N, 2.1774°E)
Time: 21:04:39
(UTC+00:00)

ISS - Pass Details

Date: 11 July 2025
Orbit: 413 x 417 km, 51.6° (Epoch: 13 July)

Event Time Altitude Azimuth Distance (km) Brightness Sun altitude
Rises 19:54:41 0° 239° (WSW) 2,338 0.4 -5.4°
Reaches altitude 10° 19:56:46 10° 242° (WSW) 1,480 -0.6 -5.7°
Maximum altitude 20:00:05 69° 326° (NW) 447 -3.4 -6.2°
Drops below altitude 10° 20:03:25 10° 51° (NE) 1,489 -1.1 -6.7°
Sets 20:05:31 0° 54° (NE) 2,356 -0.1 -7.0°
